| time (UTC) | temp F | wind direction | speed MPH | gust MPH | rain 1hr in | rain 24hr in | rain mn in | humidity % | barometer mb |
| 20260905191004 | 49 | 251 | 8.0 | 15.0 | 0.00 | 0.04 | 0.00 | 83 | 1018.1 |
| 20260905190503 | 49 | 214 | 8.0 | 15.0 | 0.00 | 0.04 | 0.00 | 83 | 1018.0 |
| 20260905190008 | 49 | 217 | 9.0 | 14.0 | 0.00 | 0.04 | 0.00 | 83 | 1017.9 |
| 20260905185507 | 49 | 223 | 9.0 | 14.0 | 0.00 | 0.04 | 0.00 | 83 | 1017.9 |
| 20260905185005 | 49 | 214 | 6.0 | 15.0 | 0.00 | 0.04 | 0.00 | 82 | 1017.8 |
| 20260905184519 | 49 | 206 | 9.0 | 15.0 | 0.00 | 0.04 | 0.00 | 82 | 1017.7 |
| 20260905184009 | 49 | 235 | 8.0 | 15.0 | 0.00 | 0.04 | 0.00 | 81 | 1017.7 |
| 20260905183508 | 49 | 208 | 9.0 | 18.0 | 0.00 | 0.04 | 0.00 | 81 | 1017.5 |
| 20260905183012 | 49 | 256 | 10.0 | 18.0 | 0.00 | 0.04 | 0.00 | 80 | 1017.5 |
| 20260905182508 | 49 | 243 | 10.0 | 16.0 | 0.00 | 0.04 | 0.00 | 80 | 1017.4 |
| 20260905182008 | 49 | 234 | 11.0 | 16.0 | 0.00 | 0.04 | 0.00 | 80 | 1017.4 |
| 20260905181511 | 49 | 243 | 6.0 | 15.0 | 0.00 | 0.04 | 0.00 | 80 | 1017.3 |
| 20260905181008 | 49 | 247 | 6.0 | 15.0 | 0.00 | 0.05 | 0.00 | 80 | 1017.4 |
| 20260905180505 | 49 | 232 | 9.0 | 14.0 | 0.00 | 0.05 | 0.00 | 80 | 1017.3 |
| 20260905180013 | 49 | 229 | 8.0 | 14.0 | 0.00 | 0.05 | 0.00 | 80 | 1017.1 |
| 20260905175508 | 49 | 256 | 8.0 | 15.0 | 0.00 | 0.05 | 0.00 | 80 | 1017.1 |
| 20260905175004 | 49 | 212 | 8.0 | 15.0 | 0.00 | 0.05 | 0.00 | 80 | 1017.1 |
| 20260905174510 | 49 | 249 | 9.0 | 14.0 | 0.00 | 0.05 | 0.00 | 81 | 1017.0 |
| 20260905174007 | 49 | 204 | 5.0 | 14.0 | 0.00 | 0.05 | 0.00 | 81 | 1016.8 |
| 20260905173508 | 49 | 213 | 6.0 | 14.0 | 0.00 | 0.05 | 0.00 | 81 | 1016.7 |
| 20260905173014 | 49 | 250 | 8.0 | 13.0 | 0.00 | 0.05 | 0.00 | 81 | 1016.7 |
| 20260905172511 | 49 | 245 | 6.0 | 13.0 | 0.00 | 0.05 | 0.00 | 81 | 1016.5 |
| 20260905172014 | 49 | 220 | 7.0 | 14.0 | 0.00 | 0.05 | 0.00 | 81 | 1016.4 |
| 20260905171516 | 49 | 241 | 10.0 | 14.0 | 0.00 | 0.06 | 0.00 | 81 | 1016.4 |
| 20260905171010 | 49 | 237 | 9.0 | 17.0 | 0.00 | 0.06 | 0.00 | 81 | 1016.2 |
| 20260905170508 | 49 | 231 | 9.0 | 17.0 | 0.00 | 0.06 | 0.00 | 81 | 1016.2 |
| 20260905170011 | 49 | 271 | 8.0 | 15.0 | 0.00 | 0.06 | 0.00 | 81 | 1016.1 |
| 20260905165511 | 49 | 240 | 9.0 | 16.0 | 0.00 | 0.06 | 0.00 | 82 | 1016.1 |
| 20260905165010 | 49 | 233 | 9.0 | 15.0 | 0.00 | 0.06 | 0.00 | 82 | 1015.9 |
| 20260905164526 | 49 | 239 | 7.0 | 15.0 | 0.00 | 0.06 | 0.00 | 82 | 1016.0 |
| 20260905164012 | 49 | 230 | 7.0 | 15.0 | 0.00 | 0.06 | 0.00 | 82 | 1015.9 |
| 20260905163510 | 49 | 259 | 7.0 | 16.0 | 0.00 | 0.06 | 0.00 | 82 | 1015.9 |
| 20260905163011 | 49 | 259 | 7.0 | 16.0 | 0.00 | 0.07 | 0.00 | 82 | 1015.8 |
| 20260905162507 | 49 | 237 | 8.0 | 15.0 | 0.00 | 0.07 | 0.00 | 82 | 1015.8 |
| 20260905162008 | 50 | 257 | 7.0 | 14.0 | 0.00 | 0.07 | 0.00 | 82 | 1015.8 |
| 20260905161518 | 50 | 241 | 8.0 | 17.0 | 0.00 | 0.07 | 0.00 | 82 | 1015.8 |
| 20260905161010 | 50 | 241 | 10.0 | 17.0 | 0.00 | 0.07 | 0.00 | 82 | 1015.7 |
| 20260905160511 | 50 | 251 | 8.0 | 15.0 | 0.00 | 0.07 | 0.00 | 82 | 1015.7 |
| 20260905160020 | 50 | 243 | 9.0 | 13.0 | 0.00 | 0.07 | 0.00 | 82 | 1015.6 |
| 20260905155515 | 50 | 218 | 5.0 | 12.0 | 0.00 | 0.07 | 0.00 | 82 | 1015.6 |
| 20260905155013 | 50 | 262 | 7.0 | 13.0 | 0.00 | 0.07 | 0.00 | 82 | 1015.5 |
| 20260905154527 | 50 | 289 | 7.0 | 13.0 | 0.00 | 0.07 | 0.00 | 82 | 1015.4 |
| 20260905154016 | 49 | 259 | 9.0 | 13.0 | 0.00 | 0.07 | 0.00 | 83 | 1015.2 |
| 20260905153516 | 49 | 254 | 6.0 | 12.0 | 0.00 | 0.07 | 0.00 | 83 | 1015.2 |
| 20260905153023 | 49 | 230 | 6.0 | 12.0 | 0.00 | 0.07 | 0.00 | 83 | 1015.2 |
| 20260905152515 | 49 | 237 | 7.0 | 14.0 | 0.00 | 0.07 | 0.00 | 83 | 1015.1 |
| 20260905152014 | 49 | 232 | 8.0 | 14.0 | 0.00 | 0.07 | 0.00 | 83 | 1015.0 |
| 20260905151519 | 49 | 256 | 7.0 | 12.0 | 0.00 | 0.07 | 0.00 | 83 | 1015.0 |
| 20260905151013 | 49 | 242 | 7.0 | 14.0 | 0.00 | 0.07 | 0.00 | 83 | 1014.9 |
| 20260905150514 | 49 | 273 | 8.0 | 16.0 | 0.00 | 0.07 | 0.00 | 83 | 1014.9 |
| 20260905150020 | 49 | 249 | 11.0 | 16.0 | 0.00 | 0.07 | 0.00 | 83 | 1014.9 |
| 20260905145514 | 49 | 273 | 8.0 | 15.0 | 0.00 | 0.07 | 0.00 | 83 | 1014.7 |
| 20260905145012 | 49 | 239 | 9.0 | 16.0 | 0.00 | 0.07 | 0.00 | 82 | 1014.6 |
| 20260905144526 | 50 | 240 | 10.0 | 17.0 | 0.00 | 0.07 | 0.00 | 81 | 1014.4 |
| 20260905144014 | 50 | 243 | 11.0 | 20.0 | 0.00 | 0.07 | 0.00 | 81 | 1014.3 |
| 20260905143511 | 50 | 241 | 11.0 | 20.0 | 0.00 | 0.07 | 0.00 | 80 | 1014.3 |
| 20260905143027 | 50 | 241 | 14.0 | 20.0 | 0.00 | 0.07 | 0.00 | 79 | 1014.1 |
| 20260905142513 | 50 | 255 | 13.0 | 20.0 | 0.00 | 0.07 | 0.00 | 80 | 1014.0 |
| 20260905142005 | 50 | 270 | 7.0 | 16.0 | 0.00 | 0.07 | 0.00 | 80 | 1013.9 |
| 20260905141507 | 50 | 255 | 10.0 | 16.0 | 0.00 | 0.07 | 0.00 | 80 | 1013.9 |
| 20260905141007 | 50 | 254 | 6.0 | 14.0 | 0.00 | 0.07 | 0.00 | 80 | 1013.8 |
| 20260905140511 | 50 | 241 | 8.0 | 14.0 | 0.00 | 0.07 | 0.00 | 79 | 1013.7 |
| 20260905140005 | 49 | 266 | 8.0 | 14.0 | 0.00 | 0.07 | 0.00 | 80 | 1013.7 |
| 20260905135510 | 49 | 260 | 10.0 | 14.0 | 0.00 | 0.07 | 0.07 | 80 | 1013.6 |
| 20260905135006 | 49 | 256 | 7.0 | 12.0 | 0.00 | 0.07 | 0.07 | 80 | 1013.4 |
| 20260905134521 | 49 | 257 | 8.0 | 12.0 | 0.00 | 0.07 | 0.07 | 80 | 1013.3 |
| 20260905134010 | 49 | 262 | 5.0 | 12.0 | 0.00 | 0.07 | 0.07 | 79 | 1013.2 |
| 20260905133504 | 49 | 256 | 7.0 | 12.0 | 0.00 | 0.07 | 0.07 | 79 | 1013.1 |
| 20260905133006 | 49 | 294 | 7.0 | 18.0 | 0.00 | 0.07 | 0.07 | 79 | 1013.1 |
| 20260905132505 | 49 | 287 | 9.0 | 18.0 | 0.00 | 0.07 | 0.07 | 78 | 1013.1 |
| 20260905132005 | 49 | 273 | 10.0 | 14.0 | 0.00 | 0.07 | 0.07 | 78 | 1013.0 |
| 20260905131508 | 49 | 278 | 7.0 | 10.0 | 0.00 | 0.07 | 0.07 | 78 | 1012.9 |
| 20260905131010 | 49 | 269 | 5.0 | 11.0 | 0.00 | 0.07 | 0.07 | 77 | 1012.9 |
| 20260905130508 | 49 | 273 | 6.0 | 11.0 | 0.00 | 0.07 | 0.07 | 77 | 1012.8 |
| 20260905130014 | 49 | 262 | 7.0 | 15.0 | 0.00 | 0.07 | 0.07 | 78 | 1012.7 |
| 20260905125504 | 49 | 268 | 8.0 | 15.0 | 0.00 | 0.07 | 0.07 | 77 | 1012.7 |
| 20260905125009 | 49 | 277 | 11.0 | 15.0 | 0.00 | 0.07 | 0.07 | 76 | 1012.7 |
| 20260905124512 | 49 | 274 | 9.0 | 15.0 | 0.00 | 0.07 | 0.07 | 75 | 1012.6 |
| 20260905124004 | 50 | 314 | 8.0 | 14.0 | 0.00 | 0.07 | 0.07 | 74 | 1012.5 |
| 20260905123512 | 50 | 247 | 7.0 | 11.0 | 0.00 | 0.07 | 0.07 | 73 | 1012.4 |
| 20260905123008 | 50 | 308 | 5.0 | 11.0 | 0.00 | 0.07 | 0.07 | 73 | 1012.4 |
| 20260905122514 | 50 | 312 | 6.0 | 11.0 | 0.00 | 0.07 | 0.07 | 72 | 1012.3 |
| 20260905122005 | 50 | 306 | 5.0 | 11.0 | 0.00 | 0.07 | 0.07 | 73 | 1012.3 |
| 20260905121507 | 50 | 285 | 6.0 | 11.0 | 0.00 | 0.07 | 0.07 | 73 | 1012.2 |
| 20260905121007 | 50 | 303 | 5.0 | 11.0 | 0.00 | 0.07 | 0.07 | 73 | 1012.2 |
| 20260905120508 | 50 | 289 | 8.0 | 15.0 | 0.00 | 0.07 | 0.07 | 73 | 1012.1 |
| 20260905120010 | 50 | 295 | 8.0 | 15.0 | 0.00 | 0.07 | 0.07 | 72 | 1012.0 |
| 20260905115509 | 50 | 278 | 8.0 | 12.0 | 0.00 | 0.07 | 0.07 | 72 | 1012.0 |
| 20260905115011 | 50 | 299 | 7.0 | 12.0 | 0.00 | 0.07 | 0.07 | 73 | 1012.1 |
| 20260905114514 | 50 | 285 | 8.0 | 13.0 | 0.00 | 0.07 | 0.07 | 72 | 1012.0 |
| 20260905114011 | 50 | 303 | 8.0 | 13.0 | 0.00 | 0.07 | 0.07 | 72 | 1011.8 |
| 20260905113507 | 50 | 286 | 10.0 | 13.0 | 0.00 | 0.07 | 0.07 | 72 | 1011.8 |
| 20260905113018 | 50 | 297 | 8.0 | 15.0 | 0.00 | 0.07 | 0.07 | 72 | 1011.6 |
| 20260905112510 | 50 | 302 | 7.0 | 15.0 | 0.00 | 0.07 | 0.07 | 72 | 1011.5 |
| 20260905112002 | 50 | 309 | 8.0 | 12.0 | 0.00 | 0.07 | 0.07 | 73 | 1011.3 |
| 20260905111505 | 50 | 305 | 7.0 | 14.0 | 0.00 | 0.07 | 0.07 | 73 | 1011.2 |
| 20260905111005 | 50 | 312 | 8.0 | 14.0 | 0.00 | 0.07 | 0.07 | 72 | 1011.2 |
| 20260905110504 | 50 | 302 | 9.0 | 14.0 | 0.00 | 0.07 | 0.07 | 72 | 1011.1 |
| 20260905110002 | 50 | 310 | 8.0 | 12.0 | 0.00 | 0.07 | 0.07 | 72 | 1010.9 |
| 20260905105508 | 50 | 314 | 8.0 | 12.0 | 0.00 | 0.07 | 0.07 | 72 | 1010.9 |
| 20260905105004 | 50 | 333 | 8.0 | 13.0 | 0.00 | 0.07 | 0.07 | 71 | 1010.7 |
| 20260905104501 | 50 | 314 | 8.0 | 13.0 | 0.00 | 0.07 | 0.07 | 71 | 1010.7 |
| 20260905104004 | 50 | 316 | 8.0 | 13.0 | 0.00 | 0.07 | 0.07 | 71 | 1010.7 |
| 20260905103505 | 50 | 341 | 8.0 | 18.0 | 0.00 | 0.07 | 0.07 | 71 | 1010.7 |
| 20260905103015 | 50 | 324 | 8.0 | 18.0 | 0.00 | 0.07 | 0.07 | 71 | 1010.7 |
| 20260905102505 | 50 | 339 | 9.0 | 16.0 | 0.00 | 0.07 | 0.07 | 71 | 1010.6 |
| 20260905102003 | 50 | 299 | 11.0 | 16.0 | 0.00 | 0.07 | 0.07 | 71 | 1010.6 |
| 20260905101505 | 50 | 314 | 10.0 | 15.0 | 0.00 | 0.07 | 0.07 | 72 | 1010.4 |
| 20260905101003 | 50 | 306 | 7.0 | 15.0 | 0.00 | 0.07 | 0.07 | 72 | 1010.3 |
| 20260905100510 | 50 | 320 | 8.0 | 15.0 | 0.00 | 0.07 | 0.07 | 72 | 1010.1 |
| 20260905100006 | 50 | 305 | 10.0 | 14.0 | 0.00 | 0.07 | 0.07 | 72 | 1009.9 |
| 20260905095504 | 51 | 308 | 7.0 | 18.0 | 0.00 | 0.07 | 0.07 | 72 | 1009.9 |
| 20260905095006 | 50 | 296 | 11.0 | 18.0 | 0.00 | 0.07 | 0.07 | 73 | 1010.1 |
| 20260905094508 | 50 | 293 | 9.0 | 15.0 | 0.00 | 0.07 | 0.07 | 76 | 1009.8 |
| 20260905094003 | 49 | 336 | 7.0 | 14.0 | 0.00 | 0.07 | 0.07 | 77 | 1009.7 |
| 20260905093508 | 49 | 335 | 9.0 | 14.0 | 0.00 | 0.07 | 0.07 | 77 | 1009.5 |
| 20260905093005 | 49 | 318 | 7.0 | 14.0 | 0.00 | 0.07 | 0.07 | 78 | 1009.4 |
| 20260905092504 | 49 | 11 | 8.0 | 14.0 | 0.00 | 0.07 | 0.07 | 78 | 1009.3 |
| 20260905092004 | 50 | 333 | 9.0 | 15.0 | 0.00 | 0.07 | 0.07 | 78 | 1009.0 |
| 20260905091505 | 49 | 338 | 8.0 | 15.0 | 0.00 | 0.07 | 0.07 | 78 | 1009.0 |
| 20260905091006 | 49 | 339 | 6.0 | 11.0 | 0.00 | 0.07 | 0.07 | 78 | 1008.9 |
| 20260905090503 | 49 | 21 | 5.0 | 10.0 | 0.00 | 0.07 | 0.07 | 79 | 1008.8 |
| 20260905090005 | 49 | 5 | 4.0 | 10.0 | 0.00 | 0.07 | 0.07 | 79 | 1008.7 |
| 20260905085505 | 49 | 16 | 6.0 | 11.0 | 0.00 | 0.07 | 0.07 | 78 | 1008.7 |
| 20260905085002 | 49 | 4 | 6.0 | 11.0 | 0.00 | 0.07 | 0.07 | 79 | 1008.7 |
| 20260905084508 | 49 | 339 | 6.0 | 12.0 | 0.00 | 0.07 | 0.07 | 79 | 1008.4 |
| 20260905084006 | 49 | 345 | 8.0 | 17.0 | 0.00 | 0.07 | 0.07 | 78 | 1008.2 |
| 20260905083502 | 49 | 328 | 9.0 | 19.0 | 0.00 | 0.07 | 0.07 | 78 | 1007.9 |
| 20260905083011 | 49 | 343 | 11.0 | 19.0 | 0.00 | 0.07 | 0.07 | 78 | 1007.8 |
| 20260905082511 | 49 | 344 | 12.0 | 17.0 | 0.00 | 0.07 | 0.07 | 78 | 1007.8 |
| 20260905082010 | 49 | 335 | 11.0 | 16.0 | 0.00 | 0.07 | 0.07 | 78 | 1007.9 |
| 20260905081510 | 49 | 333 | 10.0 | 14.0 | 0.00 | 0.07 | 0.07 | 78 | 1007.9 |
| 20260905081007 | 50 | 352 | 10.0 | 14.0 | 0.00 | 0.07 | 0.07 | 77 | 1007.9 |
| 20260905080504 | 50 | 333 | 8.0 | 16.0 | 0.00 | 0.07 | 0.07 | 76 | 1007.8 |
| 20260905080004 | 50 | 324 | 9.0 | 16.0 | 0.00 | 0.07 | 0.07 | 76 | 1007.9 |
| 20260905075504 | 50 | 326 | 10.0 | 15.0 | 0.00 | 0.07 | 0.07 | 75 | 1007.8 |
| 20260905075005 | 51 | 332 | 9.0 | 18.0 | 0.00 | 0.07 | 0.07 | 74 | 1007.8 |
| 20260905074506 | 51 | 306 | 11.0 | 23.0 | 0.00 | 0.07 | 0.07 | 73 | 1007.8 |
| 20260905074007 | 50 | 289 | 13.0 | 23.0 | 0.00 | 0.07 | 0.07 | 73 | 1007.8 |
| 20260905073507 | 50 | 312 | 13.0 | 21.0 | 0.00 | 0.07 | 0.07 | 74 | 1007.8 |
| 20260905073008 | 51 | 319 | 12.0 | 25.0 | 0.00 | 0.07 | 0.07 | 71 | 1007.8 |
| 20260905072508 | 53 | 304 | 17.0 | 24.0 | 0.00 | 0.07 | 0.07 | 68 | 1007.7 |
| 20260905072004 | 53 | 304 | 14.0 | 19.0 | 0.00 | 0.07 | 0.07 | 72 | 1007.5 |
| 20260905071505 | 53 | 279 | 11.0 | 21.0 | 0.00 | 0.07 | 0.07 | 72 | 1007.1 |
| 20260905071010 | 53 | 308 | 14.0 | 21.0 | 0.00 | 0.07 | 0.07 | 70 | 1007.3 |
| 20260905070503 | 54 | 308 | 12.0 | 22.0 | 0.00 | 0.07 | 0.07 | 69 | 1007.0 |
| 20260905070020 | 55 | 308 | 14.0 | 25.0 | 0.00 | 0.07 | 0.07 | 67 | 1007.1 |
| 20260905065509 | 56 | 299 | 16.0 | 25.0 | 0.00 | 0.07 | 0.07 | 65 | 1006.8 |
| 20260905065006 | 56 | 310 | 12.0 | 21.0 | 0.00 | 0.07 | 0.07 | 66 | 1006.7 |
| 20260905064508 | 57 | 321 | 12.0 | 23.0 | 0.00 | 0.07 | 0.07 | 66 | 1006.6 |
| 20260905064004 | 57 | 313 | 14.0 | 26.0 | 0.00 | 0.07 | 0.07 | 64 | 1006.5 |
| 20260905063504 | 58 | 308 | 16.0 | 26.0 | 0.00 | 0.07 | 0.07 | 63 | 1006.4 |
| 20260905063007 | 58 | 311 | 15.0 | 24.0 | 0.00 | 0.07 | 0.07 | 63 | 1006.3 |
| 20260905062508 | 57 | 305 | 10.0 | 22.0 | 0.00 | 0.07 | 0.07 | 65 | 1006.3 |
| 20260905062003 | 57 | 303 | 15.0 | 25.0 | 0.00 | 0.07 | 0.07 | 64 | 1006.2 |
| 20260905061512 | 58 | 292 | 16.0 | 25.0 | 0.00 | 0.07 | 0.07 | 64 | 1006.2 |
| 20260905061003 | 58 | 306 | 17.0 | 24.0 | 0.00 | 0.07 | 0.07 | 62 | 1006.2 |
| 20260905060507 | 58 | 301 | 17.0 | 25.0 | 0.00 | 0.07 | 0.07 | 62 | 1006.3 |
| 20260905060009 | 58 | 297 | 14.0 | 25.0 | 0.00 | 0.07 | 0.07 | 63 | 1006.1 |
| 20260905055512 | 58 | 291 | 16.0 | 22.0 | 0.00 | 0.07 | 0.07 | 60 | 1006.3 |
| 20260905055010 | 59 | 307 | 14.0 | 24.0 | 0.00 | 0.07 | 0.07 | 63 | 1006.2 |
| 20260905054518 | 58 | 322 | 19.0 | 24.0 | 0.00 | 0.07 | 0.07 | 61 | 1006.1 |
| 20260905054017 | 59 | 287 | 12.0 | 28.0 | 0.00 | 0.07 | 0.07 | 62 | 1006.0 |
| 20260905053506 | 59 | 308 | 17.0 | 28.0 | 0.00 | 0.07 | 0.07 | 61 | 1006.0 |
| 20260905053005 | 58 | 317 | 16.0 | 27.0 | 0.00 | 0.07 | 0.07 | 59 | 1005.9 |
| 20260905052504 | 59 | 297 | 18.0 | 32.0 | 0.00 | 0.07 | 0.07 | 61 | 1005.9 |
| 20260905052006 | 58 | 316 | 17.0 | 32.0 | 0.00 | 0.07 | 0.07 | 60 | 1005.9 |
| 20260905051509 | 59 | 300 | 15.0 | 30.0 | 0.00 | 0.07 | 0.07 | 61 | 1005.8 |
| 20260905051007 | 58 | 308 | 20.0 | 28.0 | 0.00 | 0.07 | 0.07 | 60 | 1005.6 |
| 20260905050506 | 59 | 330 | 17.0 | 24.0 | 0.00 | 0.07 | 0.07 | 60 | 1005.7 |
| 20260905050013 | 59 | 288 | 14.0 | 28.0 | 0.00 | 0.07 | 0.07 | 62 | 1005.7 |
| 20260905045511 | 59 | 303 | 17.0 | 28.0 | 0.00 | 0.07 | 0.07 | 59 | 1005.5 |
| 20260905045012 | 59 | 314 | 15.0 | 28.0 | 0.00 | 0.07 | 0.07 | 60 | 1005.3 |
| 20260905044523 | 59 | 294 | 17.0 | 28.0 | 0.00 | 0.07 | 0.07 | 60 | 1005.5 |
| 20260905044005 | 59 | 304 | 20.0 | 31.0 | 0.00 | 0.07 | 0.07 | 59 | 1005.4 |
| 20260905043514 | 59 | 310 | 22.0 | 31.0 | 0.00 | 0.07 | 0.07 | 59 | 1005.4 |
| 20260905043014 | 59 | 330 | 15.0 | 33.0 | 0.00 | 0.07 | 0.07 | 60 | 1005.5 |
| 20260905042506 | 59 | 314 | 20.0 | 33.0 | 0.00 | 0.07 | 0.07 | 58 | 1005.4 |
| 20260905042014 | 59 | 306 | 19.0 | 32.0 | 0.00 | 0.07 | 0.07 | 59 | 1005.3 |
| 20260905041519 | 59 | 324 | 18.0 | 27.0 | 0.00 | 0.07 | 0.07 | 61 | 1005.4 |
| 20260905041018 | 59 | 322 | 15.0 | 28.0 | 0.00 | 0.07 | 0.07 | 61 | 1005.2 |
| 20260905040505 | 60 | 316 | 16.0 | 31.0 | 0.00 | 0.07 | 0.07 | 62 | 1005.2 |
| 20260905040011 | 60 | 297 | 20.0 | 31.0 | 0.00 | 0.07 | 0.07 | 61 | 1005.1 |
| 20260905035506 | 60 | 282 | 15.0 | 23.0 | 0.00 | 0.07 | 0.07 | 63 | 1005.2 |
| 20260905035010 | 60 | 298 | 15.0 | 23.0 | 0.00 | 0.07 | 0.07 | 63 | 1005.3 |
| 20260905034507 | 60 | 310 | 11.0 | 25.0 | 0.00 | 0.07 | 0.07 | 64 | 1005.3 |
| 20260905034011 | 59 | 308 | 15.0 | 28.0 | 0.00 | 0.07 | 0.07 | 63 | 1005.3 |
| 20260905033507 | 59 | 310 | 17.0 | 28.0 | 0.00 | 0.07 | 0.07 | 62 | 1005.2 |
| 20260905033034 | 59 | 295 | 19.0 | 32.0 | 0.00 | 0.07 | 0.07 | 63 | 1005.4 |
| 20260905032514 | 60 | 290 | 19.0 | 32.0 | 0.00 | 0.07 | 0.07 | 58 | 1005.5 |
| 20260905032010 | 60 | 313 | 17.0 | 32.0 | 0.00 | 0.07 | 0.07 | 60 | 1005.5 |
| 20260905031531 | 60 | 317 | 24.0 | 32.0 | 0.00 | 0.07 | 0.07 | 58 | 1005.4 |
| 20260905031014 | 60 | 312 | 21.0 | 33.0 | 0.00 | 0.07 | 0.07 | 59 | 1005.5 |
| 20260905030514 | 60 | 316 | 23.0 | 30.0 | 0.00 | 0.07 | 0.07 | 59 | 1005.3 |
| 20260905030032 | 60 | 312 | 19.0 | 28.0 | 0.00 | 0.07 | 0.07 | 60 | 1005.4 |
| 20260905025510 | 61 | 339 | 14.0 | 29.0 | 0.00 | 0.07 | 0.07 | 62 | 1005.3 |
| 20260905025018 | 60 | 310 | 18.0 | 29.0 | 0.00 | 0.07 | 0.07 | 60 | 1005.4 |
| 20260905024514 | 60 | 318 | 18.0 | 28.0 | 0.00 | 0.07 | 0.07 | 60 | 1005.3 |
| 20260905024006 | 60 | 299 | 15.0 | 26.0 | 0.00 | 0.07 | 0.07 | 62 | 1005.3 |
| 20260905023510 | 59 | 334 | 17.0 | 26.0 | 0.00 | 0.07 | 0.07 | 64 | 1005.3 |
| 20260905023018 | 57 | 297 | 14.0 | 27.0 | 0.00 | 0.07 | 0.07 | 72 | 1005.5 |
| 20260905022511 | 56 | 312 | 14.0 | 31.0 | 0.00 | 0.07 | 0.07 | 71 | 1005.5 |
| 20260905022015 | 56 | 301 | 12.0 | 31.0 | 0.00 | 0.07 | 0.07 | 68 | 1005.7 |
| 20260905021516 | 58 | 313 | 13.0 | 21.0 | 0.00 | 0.07 | 0.07 | 68 | 1005.7 |
| 20260905021014 | 58 | 329 | 12.0 | 24.0 | 0.00 | 0.07 | 0.07 | 69 | 1005.7 |
| 20260905020513 | 58 | 287 | 13.0 | 29.0 | 0.00 | 0.07 | 0.07 | 69 | 1005.7 |
| 20260905020012 | 59 | 304 | 17.0 | 29.0 | 0.00 | 0.07 | 0.07 | 68 | 1005.7 |
| 20260905015520 | 59 | 335 | 14.0 | 27.0 | 0.00 | 0.07 | 0.07 | 69 | 1005.7 |
| 20260905015012 | 60 | 304 | 17.0 | 28.0 | 0.00 | 0.07 | 0.07 | 68 | 1005.8 |
| 20260905014535 | 60 | 323 | 19.0 | 29.0 | 0.00 | 0.07 | 0.07 | 68 | 1005.7 |
| 20260905014015 | 60 | 320 | 18.0 | 30.0 | 0.00 | 0.07 | 0.07 | 70 | 1005.7 |
| 20260905013508 | 59 | 314 | 19.0 | 30.0 | 0.00 | 0.07 | 0.07 | 68 | 1005.8 |
| 20260905013016 | 59 | 311 | 17.0 | 28.0 | 0.00 | 0.07 | 0.07 | 69 | 1005.9 |
| 20260905012509 | 59 | 302 | 15.0 | 27.0 | 0.00 | 0.07 | 0.07 | 70 | 1006.0 |
| 20260905012020 | 59 | 316 | 16.0 | 27.0 | 0.00 | 0.07 | 0.07 | 70 | 1006.0 |
| 20260905011522 | 58 | 297 | 18.0 | 27.0 | 0.00 | 0.07 | 0.07 | 70 | 1006.2 |
| 20260905011013 | 58 | 311 | 15.0 | 26.0 | 0.00 | 0.07 | 0.07 | 72 | 1006.4 |
| 20260905010513 | 58 | 343 | 16.0 | 28.0 | 0.00 | 0.07 | 0.07 | 72 | 1006.0 |
| 20260905010040 | 57 | 308 | 15.0 | 28.0 | 0.00 | 0.07 | 0.07 | 75 | 1006.0 |
| 20260905005509 | 57 | 316 | 14.0 | 31.0 | 0.00 | 0.07 | 0.07 | 79 | 1005.9 |
| 20260905005019 | 56 | 323 | 16.0 | 31.0 | 0.00 | 0.07 | 0.07 | 79 | 1005.8 |
| 20260905004526 | 56 | 320 | 17.0 | 28.0 | 0.00 | 0.07 | 0.07 | 80 | 1005.8 |
| 20260905004015 | 56 | 343 | 18.0 | 29.0 | 0.00 | 0.07 | 0.07 | 82 | 1005.7 |
| 20260905003515 | 56 | 332 | 15.0 | 31.0 | 0.00 | 0.07 | 0.07 | 82 | 1005.7 |
| 20260905003024 | 55 | 321 | 17.0 | 31.0 | 0.00 | 0.07 | 0.07 | 82 | 1005.6 |
| 20260905002519 | 55 | 340 | 19.0 | 31.0 | 0.00 | 0.07 | 0.07 | 83 | 1005.5 |
| 20260905002016 | 55 | 330 | 17.0 | 31.0 | 0.00 | 0.06 | 0.06 | 83 | 1005.7 |
| 20260905001514 | 55 | 354 | 18.0 | 32.0 | 0.00 | 0.06 | 0.06 | 83 | 1005.7 |
| 20260905001012 | 55 | 357 | 20.0 | 32.0 | 0.00 | 0.06 | 0.06 | 83 | 1005.6 |
| 20260905000517 | 55 | 343 | 18.0 | 31.0 | 0.00 | 0.06 | 0.06 | 83 | 1005.6 |
| 20260905000032 | 55 | 335 | 17.0 | 28.0 | 0.00 | 0.06 | 0.06 | 83 | 1005.9 |
| 20260904235513 | 55 | 349 | 20.0 | 34.0 | 0.00 | 0.06 | 0.06 | 83 | 1005.6 |
| 20260904235013 | 54 | 6 | 22.0 | 34.0 | 0.00 | 0.06 | 0.06 | 83 | 1005.6 |
| 20260904234531 | 54 | 351 | 20.0 | 32.0 | 0.00 | 0.06 | 0.06 | 83 | 1005.7 |
| 20260904234017 | 54 | 10 | 23.0 | 32.0 | 0.00 | 0.06 | 0.06 | 83 | 1005.8 |
| 20260904233515 | 54 | 346 | 19.0 | 32.0 | 0.00 | 0.06 | 0.06 | 83 | 1005.9 |
| 20260904233034 | 54 | 11 | 16.0 | 27.0 | 0.00 | 0.06 | 0.06 | 84 | 1005.8 |
| 20260904232516 | 54 | 314 | 17.0 | 33.0 | 0.00 | 0.06 | 0.06 | 84 | 1006.0 |
| 20260904232006 | 54 | 340 | 15.0 | 33.0 | 0.00 | 0.06 | 0.06 | 84 | 1005.8 |
| 20260904231509 | 54 | 26 | 11.0 | 24.0 | 0.00 | 0.06 | 0.06 | 84 | 1005.7 |
| 20260904231003 | 54 | 333 | 15.0 | 26.0 | 0.00 | 0.06 | 0.06 | 84 | 1005.9 |
| 20260904230507 | 54 | 343 | 15.0 | 26.0 | 0.00 | 0.06 | 0.06 | 84 | 1006.1 |
| 20260904230006 | 54 | 4 | 10.0 | 22.0 | 0.00 | 0.06 | 0.06 | 84 | 1006.0 |
| 20260904225502 | 54 | 7 | 14.0 | 26.0 | 0.00 | 0.06 | 0.06 | 84 | 1006.1 |
| 20260904225003 | 54 | 360 | 16.0 | 26.0 | 0.00 | 0.06 | 0.06 | 84 | 1006.3 |
| 20260904224505 | 54 | 28 | 10.0 | 29.0 | 0.00 | 0.05 | 0.05 | 84 | 1006.7 |
| 20260904224005 | 54 | 357 | 14.0 | 30.0 | 0.00 | 0.05 | 0.05 | 84 | 1006.8 |
| 20260904223503 | 54 | 346 | 15.0 | 30.0 | 0.00 | 0.05 | 0.05 | 84 | 1006.5 |
| 20260904223004 | 54 | 351 | 14.0 | 28.0 | 0.00 | 0.05 | 0.05 | 85 | 1006.7 |
| 20260904222504 | 53 | 338 | 14.0 | 28.0 | 0.00 | 0.05 | 0.05 | 85 | 1006.9 |
| 20260904222004 | 53 | 350 | 14.0 | 26.0 | 0.00 | 0.05 | 0.05 | 85 | 1006.5 |
| 20260904221519 | 53 | 28 | 14.0 | 24.0 | 0.00 | 0.05 | 0.05 | 85 | 1006.6 |
| 20260904221006 | 53 | 339 | 16.0 | 30.0 | 0.00 | 0.05 | 0.05 | 85 | 1006.8 |
| 20260904220504 | 53 | 5 | 8.0 | 30.0 | 0.00 | 0.05 | 0.05 | 85 | 1006.0 |
| 20260904220019 | 53 | 356 | 12.0 | 24.0 | 0.00 | 0.05 | 0.05 | 85 | 1007.1 |
| 20260904215510 | 53 | 4 | 13.0 | 27.0 | 0.00 | 0.05 | 0.05 | 85 | 1006.7 |
| 20260904215003 | 53 | 19 | 11.0 | 27.0 | 0.00 | 0.05 | 0.05 | 85 | 1006.7 |
| 20260904214505 | 53 | 1 | 13.0 | 30.0 | 0.00 | 0.05 | 0.05 | 85 | 1006.8 |
| 20260904214005 | 53 | 9 | 12.0 | 31.0 | 0.00 | 0.05 | 0.05 | 85 | 1006.8 |
| 20260904213504 | 53 | 1 | 15.0 | 31.0 | 0.00 | 0.05 | 0.05 | 85 | 1006.8 |
| 20260904213006 | 53 | 15 | 15.0 | 28.0 | 0.00 | 0.04 | 0.04 | 85 | 1006.7 |
| 20260904212504 | 52 | 347 | 13.0 | 20.0 | 0.00 | 0.04 | 0.04 | 85 | 1006.7 |
| 20260904212004 | 52 | 23 | 8.0 | 16.0 | 0.00 | 0.04 | 0.04 | 85 | 1006.6 |
| 20260904211508 | 52 | 12 | 6.0 | 25.0 | 0.00 | 0.04 | 0.04 | 85 | 1006.4 |
| 20260904211004 | 53 | 39 | 8.0 | 25.0 | 0.00 | 0.04 | 0.04 | 85 | 1006.7 |
| 20260904210504 | 53 | 11 | 11.0 | 23.0 | 0.00 | 0.04 | 0.04 | 85 | 1007.1 |
| 20260904210019 | 52 | 352 | 11.0 | 23.0 | 0.00 | 0.04 | 0.04 | 84 | 1007.5 |
| 20260904205506 | 53 | 55 | 9.0 | 27.0 | 0.00 | 0.04 | 0.04 | 84 | 1007.7 |
| 20260904205009 | 53 | 37 | 15.0 | 29.0 | 0.00 | 0.04 | 0.04 | 84 | 1008.0 |
| 20260904204512 | 53 | 4 | 17.0 | 32.0 | 0.00 | 0.04 | 0.04 | 83 | 1007.7 |
| 20260904204004 | 53 | 345 | 18.0 | 32.0 | 0.00 | 0.04 | 0.04 | 83 | 1007.6 |
| 20260904203504 | 53 | 8 | 15.0 | 29.0 | 0.00 | 0.04 | 0.04 | 83 | 1007.2 |
| 20260904203006 | 53 | 2 | 12.0 | 27.0 | 0.00 | 0.03 | 0.03 | 83 | 1007.3 |
| 20260904202503 | 53 | 24 | 9.0 | 27.0 | 0.00 | 0.03 | 0.03 | 84 | 1007.3 |
| 20260904202008 | 53 | 341 | 16.0 | 25.0 | 0.00 | 0.03 | 0.03 | 84 | 1007.1 |
| 20260904201508 | 52 | 328 | 8.0 | 20.0 | 0.00 | 0.03 | 0.03 | 84 | 1007.2 |
| 20260904201006 | 53 | 339 | 12.0 | 20.0 | 0.00 | 0.03 | 0.03 | 84 | 1007.5 |
| 20260904200507 | 52 | 1 | 12.0 | 20.0 | 0.00 | 0.03 | 0.03 | 84 | 1007.5 |
| 20260904200005 | 52 | 347 | 10.0 | 19.0 | 0.00 | 0.03 | 0.03 | 84 | 1007.8 |
| 20260904195508 | 52 | 8 | 11.0 | 25.0 | 0.00 | 0.03 | 0.03 | 84 | 1007.7 |
| 20260904195007 | 52 | 13 | 13.0 | 25.0 | 0.00 | 0.03 | 0.03 | 84 | 1007.7 |
| 20260904194514 | 52 | 2 | 6.0 | 25.0 | 0.00 | 0.03 | 0.03 | 84 | 1007.5 |
| 20260904194009 | 52 | 357 | 10.0 | 25.0 | 0.00 | 0.03 | 0.03 | 84 | 1007.3 |
| 20260904193505 | 53 | 6 | 12.0 | 21.0 | 0.00 | 0.03 | 0.03 | 84 | 1007.5 |
| 20260904193021 | 53 | 355 | 8.0 | 21.0 | 0.00 | 0.03 | 0.03 | 84 | 1007.6 |
| 20260904192506 | 53 | 12 | 11.0 | 21.0 | 0.00 | 0.03 | 0.03 | 84 | 1007.6 |
| 20260904192004 | 53 | 22 | 10.0 | 22.0 | 0.00 | 0.03 | 0.03 | 84 | 1007.8 |
| 20260904191505 | 53 | 15 | 11.0 | 22.0 | 0.00 | 0.03 | 0.03 | 84 | 1007.9 |